Preview of NWS' New Version of Forecast
This preview is not operational and should not be used for support decisions.

Regional Weather Roundup (RWR)

Issued by National Weather Service (NWS)

                            
000
ASUS43 KLSX 220307
RWRMO 

WEATHER SUMMARY FOR MISSOURI
NATIONAL WEATHER SERVICE SPRINGFIELD MO
1000 PM CDT SUN JUL 21 2019

NOTE: "FAIR" INDICATES FEW OR NO CLOUDS BELOW 12,000 FEET WITH NO
       SIGNIFICANT WEATHER AND/OR OBSTRUCTIONS TO VISIBILITY.
       CURRENT SKY AND/OR WEATHER CONDITIONS ARE NOT AVAILABLE FOR
       CHILLICOTHE AND FARMINGTON.

MOZ001>031-035>038-043-044-053-054-220400-
...NORTHERN AND WESTERN MISSOURI...
  
CITY           SKY/WX    TMP DP  RH WIND       PRES   REMARKS
KANSAS CTY INT LGT RAIN  72  70  93 NE15      30.01R                  
KANSAS C DTWN  LGT RAIN  75  71  87 N15G25    29.98S                  
LEE'S SUMMIT   LGT RAIN  73  71  93 N16       29.99R                  
ST JOSEPH      LGT RAIN  72  69  90 N7        30.04R                  
CHILLICOTHE      N/A     73  71  93 N8        30.01R                  
KIRKSVILLE     MOCLDY    73  70  90 N13       30.02R                  
     
$$
MOZ066>068-077>081-088>096-101>105-220400-
...SOUTHWEST MISSOURI...
  
CITY           SKY/WX    TMP DP  RH WIND       PRES   REMARKS
SPRINGFIELD    CLEAR     81  73  76 SE6       29.91F                  
JOPLIN         CLOUDY    80  71  74 N13G20    29.92R                  
               
$$
MOZ032>034-039>042-045>050-055>058-069>072-220400-
...CENTRAL MISSOURI...  
  
CITY           SKY/WX    TMP DP  RH WIND       PRES   REMARKS
COLUMBIA       PTCLDY    80  70  71 NE8       29.96R                  
ROLLA          CLEAR     79  72  79 NE7       29.96S                  
SEDALIA        RAIN      72  72 100 N12       29.98F FOG              
WHITEMAN AFB   LGT RAIN  74  74 100 NE13      29.92F                  
WARRENSBURG    LGT RAIN  73  70  88 N9        29.95S                  
OSAGE BEACH    LGT RAIN  77  76  96 NE9       29.95F                  
               
$$
MOZ051-052-059>065-220400-
...EAST CENTRAL MISSOURI...
  
CITY           SKY/WX    TMP DP  RH WIND       PRES   REMARKS
ST LOUIS INTL  PTCLDY    84  72  67 NE8       29.94R                  
SPIRIT OF STL  MOCLDY    84  71  65 NE3       29.92S                  
ST CHARLES       N/A    N/A N/A N/A MISG      29.92S                  
                   
$$
MOZ072>076-082>087-097>100-106>115-220400-
...SOUTH CENTRAL AND SOUTHEAST MISSOURI...
  
CITY           SKY/WX    TMP DP  RH WIND       PRES   REMARKS
CAPE GIRARDEAU TSTM      79  75  87 MISG      29.92R FOG              
FARMINGTON     CLEAR     80  75  84 N3        29.95S                  
POPLAR BLUFF   FAIR      83  80  91 SW3       29.91R HX  95           
WEST PLAINS    CLEAR     79  73  82 CALM      29.96S                  
                                       
$$